Flag for New Zealand Weather past 2 weeks in Christchurch, New Zealand

Now
48 °F

Cool.


Feels Like: 43 °F
Forecast: 37 / 45 °F
Wind: 13 mph from Northeast

Location: Christchurch Airport

Current Time: Sep 21, 2014 at 4:57:26 PM

Latest Report: Sep 21, 2014 at 4:30 PM


Visibility: N/A

Pressure: 29.36 "Hg

Humidity: 71%

Dew point: 39 °F

Location of ChristchurchLocation

Historic Weather in Christchurch — Graph

°F

Christchurch temperature yesterday

Maximum temperature yesterday: 59 °F (at 2:00 PM)
Minimum temperature yesterday: 34 °F (at 5:00 AM)
Average temperature yesterday: 46 °F

Past Weeks' High & Low Weather Summary

 TemperatureHumidityPressure
High72 °F (Sep 12, 3:30 PM)100% (Sep 7, 5:30 AM)30.36 "Hg (Sep 7, 5:30 AM)
Low30 °F (Sep 11, 4:00 AM)36% (Sep 12, 3:30 PM)29.15 "Hg (Sep 19, 2:00 PM)
Average48 °F78%29.80 "Hg
* Reported Sep 6 3:30 PM — Sep 21 3:30 PM, Christchurch, Weather by CustomWeather, © 2014

Note: Actual official high and low records may vary slightly from our data, if they occured in-between our weather recording intervals... More about our weather records

Advertising

Christchurch weather history for previous 24 hours

 ConditionsComfort  
Time TempWeatherWind HumidityBarometerVisibility
3:30 PM
Sep 21
50 °FCool.13 mph67%29.36 "HgN/A
3:00 PM52 °FCool.12 mph67%29.39 "HgN/A
2:30 PM52 °FPassing clouds.10 mph72%29.39 "HgN/A
2:00 PM54 °FPartly sunny.3 mph63%29.42 "HgN/A
1:30 PM52 °FPassing clouds.6 mph67%29.42 "HgN/A
1:00 PM54 °FPassing clouds.3 mph63%29.45 "HgN/A
12:30 PM52 °FCool.3 mph62%29.45 "HgN/A
12:00 PM50 °FScattered clouds.1 mph67%29.47 "HgN/A
11:30 AM48 °FMore clouds than sun.2 mph71%29.47 "HgN/A
11:00 AM48 °FMore clouds than sun.2 mph71%29.50 "HgN/A
10:30 AM48 °FMostly cloudy.2 mph76%29.50 "HgN/A
10:00 AM48 °FPartly sunny.3 mph76%29.50 "HgN/A
9:30 AM46 °FMostly cloudy.5 mph76%29.53 "HgN/A
9:00 AM46 °FOvercast.8 mph76%29.53 "HgN/A
8:30 AM45 °FBroken clouds.5 mph87%29.53 "HgN/A
8:00 AM45 °FOvercast.6 mph87%29.53 "HgN/A
7:30 AM43 °FOvercast.6 mph93%29.53 "HgN/A
7:00 AM43 °FOvercast.3 mph93%29.53 "HgN/A
6:30 AM43 °FMore clouds than sun.5 mph87%29.53 "HgN/A
6:00 AM43 °FPartly sunny.7 mph87%29.53 "HgN/A
5:30 AM43 °FOvercast.6 mph93%29.53 "HgN/A
1:30 AM45 °FDrizzle. Mostly cloudy.9 mph93%29.50 "HgN/A
1:00 AM45 °FSprinkles. Partly cloudy.10 mph93%29.47 "HgN/A
12:30 AM45 °FPartly cloudy.9 mph93%29.47 "HgN/A
12:00 AM43 °FLight rain. Overcast.9 mph93%29.47 "Hg5 mi
11:30 PM
Sep 20
43 °FPassing clouds.7 mph93%29.45 "HgN/A
11:00 PM43 °FPartly cloudy.7 mph93%29.45 "HgN/A
10:30 PM43 °FLight rain. Passing clouds.8 mph93%29.45 "HgN/A
10:00 PM45 °FPassing clouds.5 mph87%29.45 "HgN/A
9:30 PM45 °FPassing clouds.7 mph87%29.45 "HgN/A
9:00 PM46 °FSprinkles. Partly cloudy.7 mph87%29.42 "HgN/A
8:30 PM45 °FPassing clouds.8 mph87%29.42 "HgN/A
8:00 PM45 °FPassing clouds.8 mph87%29.39 "Hg5 mi
7:30 PM43 °FHaze.8 mph93%29.39 "Hg3 mi
7:00 PM43 °FQuite cool.7 mph93%29.36 "Hg4 mi
6:30 PM46 °FCool.8 mph87%29.36 "HgN/A
6:00 PM50 °FCool.8 mph71%29.33 "HgN/A
5:30 PM52 °FCool.9 mph62%29.30 "HgN/A
5:00 PM52 °FCool.12 mph62%29.27 "HgN/A
4:30 PM54 °FCool.13 mph47%29.27 "HgN/A
4:00 PM55 °FRefreshingly cool.13 mph47%29.24 "HgN/A
Weather by CustomWeather, © 2014

See weather overviewHow to use our weather pages